CAPE
1654 1667 1177 1043 945 803 841 898 762 694 268 21 0 0 0 0 0 0 0 0 0 0 0 0 0 0 0 0 0 0 0 0 0 0 0 0 1 3 0 0 0 0 0
1680 1263 1262 358 865 665 591 496 352 21 0 0 0 0 0 0 0 0 0 0 0 0 0 0 0 0 0 0 0 0 0 0 0 0 0 0 0 0 0 0 0 0 0
1191 1360 1088 493 524 473 398 46 0 0 0 0 0 0 0 0 0 0 0 0 0 0 0 0 0 0 0 0 0 0 0 0 0 0 0 0 0 0 0 0 0 0 0
1421 991 443 50 76 8 3 2 0 0 0 0 0 0 0 0 0 0 0 0 0 0 0 0 0 0 0 0 0 0 0 0 0 0 0 0 0 0 0 1 0 0 0
479 163 0 18 5 5 4 4 3 3 3 3 0 0 0 0 0 0 0 0 0 0 0 0 0 0 0 0 0 0 0 0 0 0 0 0 0 0 1 0 0 0 0
278 57 0 2 5 5 5 5 5 6 5 1 1 0 0 0 0 0 0 0 0 0 0 0 0 0 0 0 0 0 0 0 0 0 0 0 0 0 0 1 1 3 4
47 1 0 4 6 6 6 6 7 6 3 2 1 0 0 0 0 0 0 0 0 0 0 0 0 0 0 0 0 0 0 0 0 0 0 2 0 0 0 0 1 3 3
4 5 1 3 6 6 7 7 3 3 5 2 0 0 0 0 0 0 0 0 0 0 0 0 0 0 0 0 0 0 0 0 0 0 0 1 0 0 0 0 0 0 1
4 5 5 4 6 4 6 4 4 3 3 0 0 0 0 0 0 0 0 0 0 0 0 0 0 0 0 0 0 0 0 0 0 0 0 0 0 0 0 0 0 1 2
0 2 3 4 3 3 4 2 2 0 0 0 0 0 0 0 0 0 0 0 0 0 0 0 0 0 0 0 0 0 0 0 0 0 0 0 0 0 0 0 1 2 1
0 1 2 3 4 3 3 1 0 0 0 0 0 0 0 0 0 0 0 0 0 0 0 0 0 0 0 0 0 0 0 0 0 0 0 0 0 2 1 0 1 0 1
0 1 0 1 1 1 2 0 0 0 0 0 0 0 0 0 0 0 0 0 0 0 0 0 0 0 0 0 0 0 0 0 0 1 0 0 0 0 0 1 0 0 0
1 2 2 1 1 1 2 0 0 0 0 0 0 0 0 0 0 0 0 0 0 0 0 0 0 0 0 0 0 0 0 0 0 0 0 0 0 0 0 0 0 1 0
2 2 1 2 2 1 0 0 0 0 0 0 0 0 0 0 0 0 0 0 0 0 0 0 0 0 0 0 0 0 0 0 0 0 0 0 0 0 0 0 0 0 0
2 1 1 1 0 0 0 0 0 0 0 0 0 0 0 0 0 0 0 0 0 0 0 0 0 0 0 0 0 0 0 0 0 0 0 1 0 0 0 0 0 0 1
1 1 0 0 0 0 0 0 0 0 0 0 0 0 0 0 0 0 0 0 0 0 0 0 0 0 0 0 0 0 0 0 0 0 0 0 1 0 0 0 2 1 1
1 0 0 0 0 0 0 0 0 0 0 0 0 0 0 0 0 0 0 0 0 0 0 0 0 0 0 0 0 0 0 0 2 1 0 0 0 0 0 0 1 0 2
0 0 0 0 0 0 0 0 0 0 0 0 0 0 0 0 0 0 0 0 0 0 0 0 0 0 0 0 0 0 0 0 0 0 0 1 0 0 0 1 0 1 2
2 2 0 0 0 0 0 0 0 0 0 0 0 0 0 0 0 0 0 0 0 0 0 0 0 0 0 0 0 0 0 0 0 0 3 3 2 1 0 0 0 0 1
0 0 0 0 0 0 0 0 0 0 0 0 0 0 0 0 0 0 0 0 0 0 0 0 0 0 0 0 0 0 0 0 0 0 0 2 2 4 0 0 0 0 1
0 0 0 0 0 0 0 0 0 0 0 0 0 0 0 0 0 0 0 0 0 0 0 0 0 0 0 0 0 0 0 0 0 0 0 0 0 3 0 0 0 0 0
0 0 0 0 0 0 0 0 0 0 0 0 0 0 0 0 0 0 0 0 0 0 0 0 0 0 0 0 0 0 0 0 0 0 0 0 0 0 0 0 0 1 0
0 0 0 0 0 0 0 0 0 0 0 0 0 0 0 0 0 0 0 0 0 0 0 0 0 0 0 0 0 0 0 0 0 0 0 0 0 0 0 0 0 0 0
0 0 0 0 0 0 0 0 0 0 0 0 0 0 0 0 0 0 0 0 0 0 0 0 0 0 0 0 0 0 0 0 0 0 0 0 0 0 0 0 0 0 0
0 0 0 0 0 0 0 0 0 0 0 0 0 0 0 0 0 0 0 0 0 0 0 0 0 0 0 0 0 0 0 0 0 0 0 0 0 0 0 0 0 0 0
0 0 0 0 0 0 0 0 0 0 0 0 0 0 0 0 0 0 0 0 0 0 0 0 0 0 0 0 0 0 0 0 0 0 0 0 0 0 0 0 0 0 0
CIN
-17 -21 -25 -11 -31 -13 -15 -9 -26 -21 -137 -365 -0 -0 -0 -0 -0 -0 -0 -0 -0 -0 -0 -0 -0 -0 -0 -0 -0 -0 -0 -0 -0 -0 -0 -0 -10 -4 -0 -0 -0 -0 -0
-3 -59 -12 -35 -16 -13 -20 -17 -61 -224 -0 -0 -0 -0 -0 -0 -0 -0 -0 -0 -0 -0 -0 -0 -0 -0 -0 -0 -0 -0 -0 -0 -0 -0 -0 -0 -0 -0 -0 -0 -0 -0 -0
-2 -21 -25 -1 -10 -10 -14 -106 -0 -0 -0 -0 -0 -0 -0 -0 -0 -0 -0 -0 -0 -0 -0 -0 -0 -0 -0 -0 -0 -0 -0 -0 -0 -0 -0 -0 -0 -0 -0 -0 -0 -0 -0
-4 -8 -7 -284 -122 -94 -0 -0 -0 -0 -0 -0 -0 -0 -0 -0 -0 -0 -0 -0 -0 -0 -0 -0 -0 -0 -0 -0 -0 -0 -0 -0 -0 -0 -0 -0 -0 -0 -0 -0 -0 -0 -0
-30 -55 -0 -120 -0 -0 -0 -0 -0 -0 -0 -0 -0 -0 -0 -0 -0 -0 -0 -0 -0 -0 -0 -0 -0 -0 -0 -0 -0 -0 -0 -0 -0 -0 -0 -0 -0 -0 -0 -0 -0 -0 -0
-92 -141 -0 -0 -0 -0 -0 -0 -0 -0 -0 -0 -0 -0 -0 -0 -0 -0 -0 -0 -0 -0 -0 -0 -0 -0 -0 -0 -0 -0 -0 -0 -0 -0 -0 -0 -1 -0 -0 -0 -0 -0 -0
-147 -0 -0 -0 -0 -0 -0 -0 -0 -0 -0 -0 -0 -0 -0 -0 -0 -0 -0 -0 -0 -0 -0 -0 -0 -0 -0 -0 -0 -0 -0 -0 -0 -0 -0 -5 -0 -0 -0 -0 -0 -0 -0
-0 -0 -0 -0 -0 -0 -0 -0 -0 -0 -0 -0 -0 -0 -0 -0 -0 -0 -0 -0 -0 -0 -0 -0 -0 -0 -0 -0 -0 -0 -0 -0 -0 -0 -0 -15 -0 -0 -0 -0 -0 -0 -0
-0 -0 -0 -0 -0 -0 -0 -0 -0 -0 -0 -0 -0 -0 -0 -0 -0 -0 -0 -0 -0 -0 -0 -0 -0 -0 -0 -0 -0 -0 -0 -0 -0 -0 -0 -0 -0 -0 -0 -0 -0 -0 -0
-0 -0 -0 -0 -0 -0 -0 -0 -0 -0 -0 -0 -0 -0 -0 -0 -0 -0 -0 -0 -0 -0 -0 -0 -0 -0 -0 -0 -0 -0 -0 -0 -0 -0 -0 -0 -0 -0 -0 -0 -0 -0 -0
-0 -0 -0 -0 -0 -0 -0 -0 -0 -0 -0 -0 -0 -0 -0 -0 -0 -0 -0 -0 -0 -0 -0 -0 -0 -0 -0 -0 -0 -0 -0 -0 -0 -0 -0 -0 -0 -0 -0 -0 -0 -0 -0
-0 -0 -0 -0 -0 -0 -0 -0 -0 -0 -0 -0 -0 -0 -0 -0 -0 -0 -0 -0 -0 -0 -0 -0 -0 -0 -0 -0 -0 -0 -0 -0 -0 -2 -0 -0 -0 -0 -0 -0 -0 -1 -0
-0 -0 -0 -0 -0 -0 -0 -0 -0 -0 -0 -0 -0 -0 -0 -0 -0 -0 -0 -0 -0 -0 -0 -0 -0 -0 -0 -0 -0 -0 -0 -0 -0 -0 -0 -0 -0 -0 -0 -0 -0 -0 -0
-0 -0 -0 -0 -0 -0 -0 -0 -0 -0 -0 -0 -0 -0 -0 -0 -0 -0 -0 -0 -0 -0 -0 -0 -0 -0 -0 -0 -0 -0 -0 -0 -0 -1 -0 -0 -0 -0 -0 -0 -1 -0 -0
-0 -0 -0 -0 -0 -0 -0 -0 -0 -0 -0 -0 -0 -0 -0 -0 -0 -0 -0 -0 -0 -0 -0 -0 -0 -0 -0 -0 -0 -0 -0 -0 -0 -0 -0 -1 -1 -0 -0 -0 -1 -0 -0
-0 -0 -0 -0 -0 -0 -0 -0 -0 -0 -0 -0 -0 -0 -0 -0 -0 -0 -0 -0 -0 -0 -0 -0 -0 -0 -0 -0 -0 -0 -0 -0 -0 -0 -1 -1 -1 -0 -0 -0 -0 -0 -0
-0 -0 -0 -0 -0 -0 -0 -0 -0 -0 -0 -0 -0 -0 -0 -0 -0 -0 -0 -0 -0 -0 -0 -0 -0 -0 -0 -0 -0 -0 -0 -0 -0 -4 -0 -6 -3 -0 -1 -0 -1 -0 -0
-0 -0 -0 -0 -0 -0 -0 -0 -0 -0 -0 -0 -0 -0 -0 -0 -0 -0 -0 -0 -0 -0 -0 -0 -0 -0 -0 -0 -0 -0 -0 -0 -0 -8 -0 -10 -1 -0 -0 -0 -0 -0 -0
-0 -0 -0 -0 -0 -0 -0 -0 -0 -0 -0 -0 -0 -0 -0 -0 -0 -0 -0 -0 -0 -0 -0 -0 -0 -0 -0 -0 -0 -0 -0 -0 -0 -0 -11 -7 -4 -4 -0 -0 -0 -0 -0
-0 -0 -0 -0 -0 -0 -0 -0 -0 -0 -0 -0 -0 -0 -0 -0 -0 -0 -0 -0 -0 -0 -0 -0 -0 -0 -0 -0 -0 -0 -0 -0 -0 -0 -0 -2 -4 -2 -0 -0 -0 -0 -0
-0 -0 -0 -0 -0 -0 -0 -0 -0 -0 -0 -0 -0 -0 -0 -0 -0 -0 -0 -0 -0 -0 -0 -0 -0 -0 -0 -0 -0 -0 -0 -0 -0 -0 -0 -0 -0 -1 -0 -0 -1 -1 -0
-0 -0 -0 -0 -0 -0 -0 -0 -0 -0 -0 -0 -0 -0 -0 -0 -0 -0 -0 -0 -0 -0 -0 -0 -0 -0 -0 -0 -0 -0 -0 -0 -0 -0 -0 -0 -0 -0 -0 -0 -1 -0 -0
-0 -0 -0 -0 -0 -0 -0 -0 -0 -0 -0 -0 -0 -0 -0 -0 -0 -0 -0 -0 -0 -0 -0 -0 -0 -0 -0 -0 -0 -0 -0 -0 -0 -0 -0 -0 -0 -0 -0 -0 -0 -0 -0
-0 -0 -0 -0 -0 -0 -0 -0 -0 -0 -0 -0 -0 -0 -0 -0 -0 -0 -0 -0 -0 -0 -0 -0 -0 -0 -0 -0 -0 -0 -0 -0 -0 -0 -0 -0 -0 -0 -0 -0 -1 -0 -1
-0 -0 -0 -0 -0 -0 -0 -0 -0 -0 -0 -0 -0 -0 -0 -0 -0 -0 -0 -0 -0 -0 -0 -0 -0 -0 -0 -0 -0 -0 -0 -0 -0 -0 -0 -0 -0 -0 -0 -0 -0 -1 -0
-0 -0 -0 -0 -0 -0 -0 -0 -0 -0 -0 -0 -0 -0 -0 -0 -0 -0 -0 -0 -0 -0 -0 -0 -0 -0 -0 -0 -0 -0 -0 -0 -0 -0 -0 -0 -0 -0 -0 -0 -0 -0 -0
Wind_Speed
30 40 46 48 42 38 34 24 21 18 14 11 8 5 3 2 4 5 7 10 12 14 16 19 22 25 24 27 28 28 29 29 30 31 30 32 31 34 38 38 39 41 40
30 40 44 48 40 34 30 23 19 17 13 11 7 5 3 1 2 5 7 10 12 15 18 20 25 24 26 27 27 28 29 30 29 31 33 33 36 39 40 42 43 40 39
35 38 41 32 33 31 25 20 18 15 12 9 7 5 3 2 3 5 7 10 13 16 19 23 25 25 24 25 27 28 29 29 29 32 35 35 37 43 44 41 41 39 38
28 33 36 24 28 24 24 19 17 14 12 9 6 5 4 3 4 5 8 10 14 16 19 21 19 20 23 25 25 26 29 30 32 34 33 36 39 42 41 43 42 41 42
23 27 22 30 28 23 20 19 15 12 10 8 7 4 2 3 6 7 9 12 14 15 15 18 19 21 23 23 24 26 27 30 32 34 35 37 40 44 44 42 40 42 41
20 21 21 24 23 22 18 16 12 11 11 9 6 4 3 5 7 9 11 12 13 14 15 17 21 23 23 25 26 26 20 27 31 32 35 38 40 40 41 41 40 44 46
17 19 16 15 21 21 17 13 12 12 10 8 6 5 5 6 9 12 14 15 14 15 17 19 20 22 24 26 28 29 24 21 23 28 34 36 39 39 39 40 39 39 40
12 17 13 12 12 14 14 10 8 9 11 10 8 6 6 9 11 14 15 15 15 16 18 20 21 23 25 27 28 29 31 29 28 28 29 32 35 35 37 37 37 37 34
13 13 15 7 13 14 15 12 12 12 10 9 8 9 10 10 14 14 13 14 16 18 20 20 21 24 26 28 28 30 31 31 30 29 30 31 32 34 37 38 39 41 42
13 11 10 12 15 16 13 14 12 13 12 12 10 11 13 12 11 13 15 17 17 18 20 20 23 25 27 28 29 31 33 34 33 32 33 37 38 35 39 37 38 40 36
8 12 11 13 14 19 16 14 12 11 12 12 12 12 12 12 11 12 14 15 15 17 17 20 21 24 27 28 30 32 34 33 33 35 37 39 38 38 40 37 36 36 30
3 13 11 11 13 17 18 13 12 12 12 12 13 13 11 11 13 16 16 17 16 15 18 20 22 23 24 28 30 34 35 35 35 35 37 41 40 39 39 37 37 31 25
10 9 11 12 11 13 15 15 13 12 10 10 10 11 13 12 14 17 17 15 15 18 20 21 22 25 26 28 29 33 35 36 36 36 39 41 39 38 36 35 34 31 32
10 8 10 12 11 11 14 15 14 10 10 10 11 10 11 13 16 18 13 14 16 18 20 21 23 25 27 29 32 34 37 37 37 36 40 37 37 38 38 41 33 36 36
9 12 14 14 14 16 11 7 5 5 8 8 9 10 12 13 13 8 11 14 16 19 21 23 25 27 29 31 33 35 37 37 37 37 39 38 38 38 39 40 36 38 34
11 10 12 13 13 14 15 14 12 11 12 11 13 12 15 13 9 13 14 16 18 20 22 24 26 28 31 33 34 35 37 37 37 38 37 37 37 38 41 40 40 40 27
9 10 13 13 11 14 14 12 13 10 13 15 12 15 11 9 11 14 17 20 21 22 24 25 27 29 31 33 34 35 38 37 37 36 37 36 36 37 36 38 43 41 26
10 12 11 10 11 11 12 11 12 14 15 14 9 9 7 9 12 15 16 20 22 23 25 26 28 30 31 33 34 35 36 36 36 36 35 34 37 38 34 34 40 40 22
16 14 13 12 10 11 13 16 13 15 14 12 5 5 1 9 13 16 18 20 22 23 25 27 28 30 32 33 34 35 36 36 36 35 35 34 37 38 33 32 38 43 30
17 17 13 12 11 11 12 11 11 11 10 6 4 1 7 11 15 17 19 21 22 24 26 27 29 30 32 33 34 34 34 36 36 36 35 37 38 36 34 31 37 42 34
12 12 11 10 9 9 11 11 9 6 6 6 3 4 12 13 16 18 20 21 23 25 26 27 29 31 32 33 33 34 33 33 35 36 36 36 38 34 33 31 35 38 33
15 9 7 8 10 11 10 7 5 4 4 5 9 12 14 15 17 19 21 22 23 25 27 28 29 30 31 32 33 33 34 33 34 35 35 37 35 32 30 29 32 35 31
13 6 8 7 7 8 5 5 5 6 8 11 12 12 13 16 18 20 21 22 24 25 27 29 29 30 30 31 31 32 33 33 31 31 31 37 32 33 29 28 29 33 29
11 4 3 6 7 5 7 10 13 16 13 10 11 12 13 15 18 20 21 23 24 25 27 28 29 31 31 31 31 31 32 33 30 30 27 36 33 31 32 29 27 31 27
5 4 6 6 4 4 8 9 9 9 9 9 10 11 13 16 18 20 21 23 24 25 27 28 28 30 32 32 32 32 34 35 33 32 31 35 33 30 35 30 27 28 28
1 5 2 4 11 9 13 13 12 10 9 9 9 11 14 16 18 20 21 22 24 25 26 27 29 30 31 32 32 33 35 36 35 34 34 34 33 31 33 32 28 26 26
Wind_Direction
227 227 225 222 218 215 218 216 215 198 193 190 196 207 209 219 308 338 354 350 357 355 355 355 354 351 355 349 350 345 347 351 348 349 356 356 359 3 359 360 360 358 357
233 228 225 227 213 211 213 200 188 185 185 184 192 197 204 279 40 355 359 356 356 358 353 351 350 350 350 347 347 347 352 347 353 355 356 359 -0 360 359 358 357 358 359
231 226 225 229 210 205 195 190 176 176 177 182 189 191 187 124 52 23 8 5 4 355 347 349 346 351 355 349 350 354 349 355 2 358 355 0 360 357 357 360 359 1 2
226 223 223 206 189 170 178 179 168 172 177 185 186 170 140 89 63 32 21 6 2 347 353 355 7 356 353 359 1 1 359 2 360 359 3 1 0 0 2 0 1 2 2
217 209 199 201 174 176 173 180 178 176 180 180 172 160 123 57 48 29 13 10 8 6 15 28 11 7 7 3 4 3 7 5 3 3 3 3 2 0 0 1 1 1 5
219 208 205 198 173 173 178 175 177 179 180 160 162 155 113 54 47 33 37 40 28 31 30 29 20 8 349 356 2 8 18 9 8 9 6 4 2 2 3 4 3 3 2
213 203 202 191 185 178 167 169 171 173 162 162 157 139 85 47 50 55 44 45 41 35 21 18 17 4 1 3 360 2 18 23 19 12 6 5 3 5 5 5 6 6 4
219 210 200 168 186 186 176 153 171 174 150 151 140 109 82 69 52 53 50 54 39 27 24 25 18 360 5 3 7 4 6 11 11 10 9 9 8 10 10 7 6 6 10
226 208 195 184 181 176 162 146 137 134 130 116 112 99 85 66 62 48 49 46 41 36 37 23 12 13 11 10 10 8 11 14 16 15 20 16 13 12 10 6 5 4 3
236 213 178 133 140 159 150 130 129 118 113 106 98 81 73 57 32 41 63 67 52 46 37 18 21 21 18 12 13 13 12 9 13 16 18 14 12 13 8 9 9 4 7
202 209 150 157 117 115 124 132 130 122 109 101 89 76 57 40 37 46 56 56 54 47 23 20 28 26 20 14 15 15 13 13 15 15 15 13 13 12 11 10 12 12 17
214 184 138 125 119 110 112 122 125 117 108 92 84 71 55 43 40 49 48 46 41 27 31 36 36 28 23 18 18 14 13 16 15 18 16 14 14 13 12 13 12 19 24
157 125 120 114 120 110 112 108 114 110 102 84 75 76 68 53 51 57 56 40 37 41 45 43 28 21 19 21 23 20 18 17 18 19 17 15 16 17 17 18 22 25 24
167 129 114 110 114 110 102 104 102 97 89 84 83 75 70 66 68 69 44 33 37 32 28 35 35 25 19 23 22 21 18 19 20 23 18 19 20 20 20 360 26 23 23
100 102 98 99 106 104 98 94 96 75 80 91 88 80 74 67 57 17 28 28 22 19 18 25 21 18 17 20 21 21 21 21 23 24 20 21 22 21 18 354 25 23 29
106 116 116 112 110 106 103 91 68 77 75 71 72 71 72 64 51 48 33 23 25 21 28 24 21 20 19 19 20 22 22 23 24 23 23 24 24 23 359 358 22 23 42
125 122 115 113 114 111 101 95 96 76 69 69 74 75 71 66 49 40 31 32 32 33 31 27 23 22 21 21 23 25 23 25 25 26 26 28 26 23 347 352 18 24 47
121 112 118 111 109 113 98 104 95 94 90 79 69 70 66 50 39 33 27 38 35 30 28 27 25 23 24 23 26 28 28 28 29 29 29 30 26 15 347 345 24 357 338
111 105 117 112 114 108 97 93 95 90 89 86 99 190 230 29 29 33 30 32 34 31 31 28 27 25 23 27 28 30 30 31 31 31 31 30 25 11 348 346 27 10 346
103 106 109 120 123 108 99 103 102 98 95 122 170 63 24 30 34 33 31 30 29 32 32 30 26 26 28 29 29 31 35 34 34 33 31 26 20 7 353 348 14 11 355
132 139 138 124 119 106 102 100 106 133 168 198 240 356 44 37 36 33 30 30 32 30 29 29 29 29 30 31 32 35 36 36 34 32 32 26 7 359 353 350 2 13 357
166 139 123 112 99 99 98 116 153 163 98 74 56 49 46 41 41 42 41 38 32 28 28 33 34 34 34 35 37 38 37 37 34 32 32 25 357 353 351 349 357 5 357
190 171 101 108 111 110 129 110 95 85 81 73 61 50 42 43 45 45 41 36 37 37 34 34 36 37 39 40 41 40 37 35 37 37 39 25 352 358 351 350 354 1 356
204 164 142 127 173 113 101 84 88 91 79 63 55 48 43 42 44 44 40 41 40 38 41 44 44 41 41 41 40 39 37 36 40 42 46 25 358 358 359 354 354 2 356
190 195 183 192 163 112 91 96 86 74 66 57 52 49 48 45 44 44 46 46 43 43 43 43 44 43 40 38 36 36 32 31 37 40 41 20 3 357 11 359 356 1 0
194 136 193 101 95 92 97 93 86 77 68 59 51 48 48 48 49 49 46 45 47 48 48 47 43 41 39 37 35 32 24 28 32 36 35 21 12 2 12 6 359 359 1